Location: Antichan
(42.9728°N, 0.6667°E)
Time: 13:25:42
(UTC+00:00)

Cosmos 1850 Rocket - Pass Details

Date: 15 August 2020
Orbit: 755 x 784 km, 74.0° (Epoch: 25 September)

Event Time Altitude Azimuth Distance (km) Brightness Sun altitude
Rises 20:14:48 0° 182° (S) 3,248 6.9 -13.2°
Reaches altitude 10° 20:17:15 10° 177° (S) 2,321 6.1 -13.6°
Maximum altitude 20:22:18 48° 104° (ESE) 1,001 4.2 -14.4°
Drops below altitude 10° 20:27:21 10° 31° (NNE) 2,319 6.6 -15.1°
Sets 20:29:47 0° 26° (NNE) 3,245 7.4 -15.5°
